| time (UTC) | temp C | wind direction | speed KPH | gust KPH | rain 1hr cm | rain 24hr cm | rain mn cm | humidity % | barometer mb |
| 20260507075701 | 11 | 155 | 3.2 | 11.3 | 0.00 | 0.00 | 0.00 | 30 | 1015.8 |
| 20260507073926 | 10 | 170 | 3.2 | 11.3 | 0.00 | 0.00 | 0.00 | 31 | 1015.9 |
| 20260507072221 | 10 | 129 | 3.2 | 9.7 | 0.00 | 0.00 | 0.00 | 33 | 1016.0 |
| 20260507070331 | 9 | 109 | 3.2 | 9.7 | 0.00 | 0.00 | 0.00 | 33 | 1016.0 |
| 20260507064423 | 8 | 151 | 3.2 | 12.9 | 0.00 | 0.00 | 0.00 | 34 | 1016.1 |
| 20260507062747 | 8 | 110 | 4.8 | 12.9 | 0.00 | 0.00 | 0.00 | 35 | 1015.9 |
| 20260507060806 | 7 | 136 | 3.2 | 12.9 | 0.00 | 0.00 | 0.00 | 38 | 1015.8 |
| 20260507054931 | 7 | 120 | 3.2 | 11.3 | 0.00 | 0.00 | 0.00 | 37 | 1015.8 |
| 20260507053306 | 7 | 128 | 3.2 | 14.5 | 0.00 | 0.00 | 0.00 | 39 | 1015.7 |
| 20260507045549 | -17 | 104 | 3.2 | 9.7 | 0.00 | 0.00 | 0.00 | 41 | 1015.6 |
| 20260507045547 | 6 | 104 | 3.2 | 9.7 | 0.00 | 0.00 | 0.00 | 41 | 1015.6 |
| 20260506192811 | 3 | 122 | 4.8 | 0.0 | 0.00 | 0.00 | 0.00 | 71 | 1014.4 |
| 20260506192806 | 3 | 122 | 4.8 | 8.0 | 0.00 | 0.00 | 0.00 | 71 | 1014.4 |
| 20260506190811 | 4 | 120 | 4.8 | 9.7 | 0.00 | 0.00 | 0.00 | 68 | 1014.4 |
| 20260506183146 | 6 | 130 | 3.2 | 8.0 | 0.00 | 0.00 | 0.00 | 61 | 1014.2 |
| 20260506181251 | 7 | 177 | 4.8 | 9.7 | 0.00 | 0.00 | 0.00 | 57 | 1014.2 |
| 20260506175532 | 7 | 191 | 4.8 | 12.9 | 0.00 | 0.00 | 0.00 | 51 | 1014.2 |
| 20260506175529 | 7 | 191 | 4.8 | 12.9 | 0.00 | 0.00 | 0.00 | 51 | 1014.2 |
| 20260506173906 | 8 | 195 | 4.8 | 9.7 | 0.00 | 0.00 | 0.00 | 47 | 1014.2 |
| 20260506172201 | 8 | 187 | 4.8 | 9.7 | 0.00 | 0.00 | 0.00 | 44 | 1014.2 |
| 20260506170316 | 9 | 203 | 4.8 | 9.7 | 0.00 | 0.00 | 0.00 | 41 | 1014.1 |
| 20260506164612 | -17 | 210 | 6.4 | 6.4 | 0.00 | 0.00 | 0.00 | 31 | |
| 20260506162951 | 10 | 224 | 6.4 | 16.1 | 0.00 | 0.00 | 0.00 | 39 | 1013.9 |
| 20260506161041 | 10 | 228 | 4.8 | 11.3 | 0.00 | 0.00 | 0.00 | 37 | 1013.9 |
| 20260506155117 | 10 | 223 | 6.4 | 12.9 | 0.00 | 0.00 | 0.00 | 38 | 1013.9 |
| 20260506153506 | 10 | 238 | 6.4 | 17.7 | 0.00 | 0.00 | 0.00 | 39 | 1014.0 |
| 20260506151701 | 9 | 229 | 6.4 | 16.1 | 0.00 | 0.00 | 0.00 | 43 | 1014.0 |
| 20260506145951 | 9 | 228 | 9.7 | 24.1 | 0.00 | 0.00 | 0.00 | 41 | 1014.1 |
| 20260506144011 | 8 | 200 | 8.0 | 22.5 | 0.00 | 0.00 | 0.00 | 45 | 1014.2 |
| 20260506142306 | 9 | 212 | 9.7 | 20.9 | 0.00 | 0.00 | 0.00 | 44 | 1014.4 |
| 20260506140602 | 9 | 206 | 6.4 | 16.1 | 0.00 | 0.00 | 0.00 | 44 | 1014.3 |
| 20260506134732 | 9 | 208 | 8.0 | 16.1 | 0.00 | 0.00 | 0.00 | 44 | 1014.2 |
| 20260506133041 | 9 | 208 | 9.7 | 20.9 | 0.00 | 0.00 | 0.00 | 44 | 1014.3 |
| 20260506131445 | 8 | 211 | 12.9 | 24.1 | 0.00 | 0.00 | 0.00 | 46 | 1014.3 |
| 20260506125806 | 8 | 217 | 12.9 | 27.4 | 0.00 | 0.00 | 0.00 | 45 | 1014.3 |
| 20260506123848 | 7 | 211 | 14.5 | 30.6 | 0.00 | 0.00 | 0.00 | 1014.1 | |
| 20260506122111 | 8 | 230 | 11.3 | 25.7 | 0.00 | 0.00 | 0.00 | 42 | 1014.4 |
| 20260506120226 | 8 | 198 | 11.3 | 30.6 | 0.00 | 0.00 | 0.00 | 42 | 1014.4 |
| 20260506114531 | 9 | 221 | 11.3 | 27.4 | 0.00 | 0.00 | 0.00 | 47 | 1014.4 |
| 20260506112912 | 8 | 232 | 14.5 | 33.8 | 0.00 | 0.00 | 0.00 | 48 | |
| 20260506112909 | 8 | 232 | 14.5 | 33.8 | 0.00 | 0.00 | 0.00 | 48 | 1014.5 |
| 20260506111107 | 8 | 221 | 9.7 | 29.0 | 0.00 | 0.00 | 0.00 | 49 | 1014.4 |
| 20260506105246 | 7 | 211 | 11.3 | 27.4 | 0.00 | 0.00 | 0.00 | 52 | 1014.5 |
| 20260506103546 | 8 | 207 | 11.3 | 29.0 | 0.00 | 0.00 | 0.00 | 48 | 1014.4 |
| 20260506101856 | 8 | 188 | 9.7 | 22.5 | 0.00 | 0.00 | 0.00 | 52 | 1014.3 |
| 20260506100032 | 8 | 202 | 12.9 | 25.7 | 0.00 | 0.00 | 0.00 | 50 | 1014.1 |
| 20260506094431 | 9 | 208 | 11.3 | 20.9 | 0.00 | 0.00 | 0.00 | 46 | 1013.9 |
| 20260506092516 | 9 | 190 | 6.4 | 22.5 | 0.00 | 0.00 | 0.00 | 45 | 1013.7 |
| 20260506090747 | 10 | 179 | 8.0 | 19.3 | 0.00 | 0.00 | 0.00 | 1013.5 | |
| 20260506085046 | 9 | 211 | 8.0 | 17.7 | 0.00 | 0.00 | 0.00 | 38 | 1013.5 |
| 20260506083446 | 8 | 235 | 8.0 | 19.3 | 0.00 | 0.00 | 0.00 | 45 | 1013.4 |
| 20260506081807 | 8 | 187 | 8.0 | 22.5 | 0.00 | 0.00 | 0.00 | 43 | 1013.5 |